This is the latest recevied weather packets stored in our database for station/object DG1JLA-3. If no packets are shown the sender has not sent any weather packets the latest 10 day(s).
| Time | Temp. | Humidity | Pressure | Rain* | Wind** | Luminosity | Snow |
|---|---|---|---|---|---|---|---|
| 1777797598 | 24.44° C | 33% | 1017.1 hPa | 0 mm | - | - | - |
| 1777797298 | 24.44° C | 34% | 1017.1 hPa | 0 mm | - | - | - |
| 1777796998 | 24.44° C | 35% | 1017.2 hPa | 0 mm | - | - | - |
| 1777796698 | 24.44° C | 35% | 1017.2 hPa | 0 mm | - | - | - |
| 1777796398 | 24.44° C | 36% | 1017.3 hPa | 0 mm | - | - | - |
| 1777796098 | 24.44° C | 36% | 1017.3 hPa | 0 mm | - | - | - |
| 1777795798 | 23.89° C | 37% | 1017.3 hPa | 0 mm | - | - | - |
| 1777795498 | 23.33° C | 36% | 1017.3 hPa | 0 mm | - | - | - |
| 1777795198 | 23.33° C | 38% | 1017.3 hPa | 0 mm | - | - | - |
| 1777794898 | 22.78° C | 41% | 1017.4 hPa | 0 mm | - | - | - |
| 1777794598 | 22.22° C | 41% | 1017.3 hPa | 0 mm | - | - | - |
| 1777794298 | 21.67° C | 48% | 1017.3 hPa | 0 mm | - | - | - |
| 1777793998 | 20.56° C | 49% | 1017.3 hPa | 0 mm | - | - | - |
| 1777793698 | 20.56° C | 50% | 1017.4 hPa | 0 mm | - | - | - |
| 1777793398 | 20.56° C | 49% | 1017.4 hPa | 0 mm | - | - | - |
| 1777793098 | 20° C | 50% | 1017.4 hPa | 0 mm | - | - | - |
| 1777792798 | 20° C | 51% | 1017.4 hPa | 0 mm | - | - | - |
| 1777792499 | 19.44° C | 51% | 1017.5 hPa | 0 mm | - | - | - |
| 1777792198 | 19.44° C | 52% | 1017.5 hPa | 0 mm | - | - | - |
| 1777791898 | 18.89° C | 52% | 1017.5 hPa | 0 mm | - | - | - |
| 1777791598 | 18.89° C | 51% | 1017.6 hPa | 0 mm | - | - | - |
| 1777791299 | 18.89° C | 52% | 1017.6 hPa | 0 mm | - | - | - |
| 1777790999 | 18.89° C | 51% | 1017.7 hPa | 0 mm | - | - | - |
| 1777790699 | 18.89° C | 52% | 1017.7 hPa | 0 mm | - | - | - |
| 1777790399 | 17.78° C | 54% | 1017.6 hPa | 0 mm | - | - | - |
* Rain latest hour (hover to see other rain measurements)
** Current wind speed in m/s (hover to see current wind gust speed)